EDT,Max TemperatureF,Mean TemperatureF,Min TemperatureF,Max Dew PointF,MeanDew PointF,Min DewpointF,Max Humidity, Mean Humidity, Min Humidity, Max Sea Level PressureIn, Mean Sea Level PressureIn, Min Sea Level PressureIn, Max VisibilityMiles, Mean VisibilityMiles, Min VisibilityMiles, Max Wind SpeedMPH, Mean Wind SpeedMPH, Max Gust SpeedMPH,PrecipitationIn, CloudCover, Events, WindDirDegrees
2012-3-1,82,74,66,71,68,66,100,81,62,30.13,30.08,30.02,10,9,4,14,5,18,0.00,2,,165
2012-3-2,83,75,66,70,68,64,100,81,62,30.06,30.01,29.97,10,10,8,18,7,23,0.00,3,,156
2012-3-3,83,76,69,72,70,68,97,81,65,29.98,29.92,29.86,10,9,8,22,10,26,0.00,3,,170
2012-3-4,77,66,55,73,56,32,94,62,29,30.22,29.99,29.83,10,8,2,28,14,40,0.10,4,Rain,298
2012-3-5,76,63,50,43,35,28,59,39,19,30.36,30.30,30.23,10,10,10,20,8,26,0.00,0,,39
2012-3-6,81,68,54,58,50,42,77,56,35,30.37,30.31,30.26,10,10,10,25,12,31,0.00,2,,62
2012-3-7,83,73,63,64,61,57,84,69,54,30.32,30.27,30.21,10,10,9,24,14,30,T,5,,76
2012-3-8,84,75,65,70,66,64,93,76,58,30.25,30.20,30.13,10,9,7,20,9,24,T,4,Rain,78
2012-3-9,82,74,65,69,66,64,100,79,58,30.19,30.14,30.09,10,9,7,15,6,20,0.00,4,Thunderstorm,80
2012-3-10,83,75,67,68,66,63,93,74,55,30.18,30.14,30.10,10,10,7,12,5,18,0.00,3,,37
2012-3-11,86,76,66,68,65,60,93,69,44,30.25,30.20,30.15,10,10,3,16,8,21,0.01,4,Rain,83
2012-3-12,84,75,65,64,61,57,93,70,46,30.26,30.21,30.15,10,10,8,21,11,29,0.00,2,,77
2012-3-13,84,73,62,60,58,57,93,68,43,30.23,30.19,30.13,10,10,10,16,8,21,0.00,2,,67
2012-3-14,84,73,62,63,60,57,84,65,46,30.21,30.16,30.11,10,10,10,17,9,23,0.00,1,,57
2012-3-15,85,75,64,67,64,60,93,74,54,30.21,30.17,30.13,10,10,9,28,9,32,T,2,Rain-Thunderstorm,60
2012-3-16,85,75,64,70,65,63,93,72,51,30.21,30.16,30.12,10,7,0,15,7,20,0.85,4,Fog-Rain-Thunderstorm,120
2012-3-17,86,75,63,65,60,54,100,67,34,30.22,30.17,30.11,10,10,10,16,7,21,0.00,1,,57
2012-3-18,85,73,61,67,61,55,97,69,40,30.23,30.16,30.11,10,10,10,16,7,21,0.00,2,,63
2012-3-19,86,75,64,67,61,55,93,64,35,30.17,30.11,30.04,10,10,10,16,7,22,0.00,1,,79
2012-3-20,85,74,63,66,61,57,93,70,46,30.09,30.05,30.00,10,10,10,18,9,26,0.00,2,,94
2012-3-21,86,75,64,68,65,62,93,72,51,30.12,30.07,30.01,10,10,7,20,9,26,T,2,Rain,108
2012-3-22,87,79,70,69,66,61,90,69,48,30.14,30.09,30.03,10,10,7,20,10,24,0.00,3,,122
2012-3-23,83,75,67,68,65,63,93,72,51,30.13,30.07,30.02,10,10,8,15,6,18,0.00,2,,139
2012-3-24,82,74,66,68,66,63,93,76,58,30.06,30.01,29.95,10,10,9,15,6,21,T,2,,191
2012-3-25,79,76,72,69,66,57,87,72,57,29.97,29.92,29.87,10,10,3,18,11,26,0.04,3,Rain,260
2012-3-26,81,73,64,62,57,50,84,60,35,30.01,29.96,29.92,10,10,10,17,7,21,0.00,0,,324
2012-3-27,86,73,60,68,61,56,84,64,44,30.15,30.08,30.01,10,10,7,15,7,20,T,2,,55
2012-3-28,86,74,62,63,58,50,84,57,30,30.16,30.11,30.05,10,10,9,16,9,22,0.00,1,,106
2012-3-29,81,72,63,63,62,59,100,75,49,30.08,30.03,29.98,10,10,7,14,6,17,0.00,1,,142
2012-3-30,84,73,62,66,61,56,84,66,47,30.07,30.02,29.99,10,10,10,20,8,24,0.00,0,,142
2012-3-31,83,74,65,73,69,62,94,80,65,30.01,29.96,29.91,10,9,7,18,8,23,0.00,5,,222